Snowfall_Accumulation
0.0 0.0 0.0 0.0 0.0 0.0 0.0 0.0 0.0 0.0 0.0 0.0 0.0 0.0 0.0 0.0 0.0 0.0 0.0 0.0 0.0 0.0 0.0 0.0 0.0 0.0 0.0 0.0 0.0 0.0 0.0 0.1 0.3 0.1 0.0 0.1 0.0 0.0 0.0 0.0 0.0 0.0 0.0
0.0 0.0 0.0 0.0 0.0 0.0 0.0 0.0 0.0 0.0 0.0 0.0 0.0 0.0 0.0 0.0 0.0 0.0 0.0 0.0 0.0 0.0 0.0 0.0 0.0 0.0 0.0 0.0 0.0 0.0 0.1 0.1 0.5 0.9 0.6 0.5 0.4 0.2 0.2 0.2 0.1 0.1 0.1
0.0 0.0 0.0 0.0 0.0 0.0 0.0 0.0 0.0 0.0 0.0 0.0 0.0 0.0 0.0 0.0 0.0 0.0 0.1 0.1 0.1 0.0 0.0 0.0 0.1 0.1 0.1 0.1 0.1 0.1 0.3 0.4 0.9 1.4 0.6 0.3 0.3 0.2 0.2 0.1 0.1 0.1 0.0
0.0 0.0 0.0 0.0 0.0 0.0 0.0 0.0 0.1 0.1 0.1 0.1 0.1 0.0 0.1 0.3 0.2 0.2 0.1 0.1 0.1 0.1 0.1 0.1 0.1 0.1 0.3 0.5 0.7 0.7 1.3 1.2 1.1 1.5 1.5 1.1 0.8 0.5 0.5 0.6 0.5 0.3 0.2
0.1 0.0 0.0 0.0 0.1 0.0 0.1 0.2 0.3 0.1 0.1 0.1 0.1 0.1 0.2 0.3 0.2 0.2 0.2 0.2 0.2 0.2 0.2 0.3 0.4 0.4 0.3 0.5 0.9 1.3 1.3 1.6 2.2 2.8 2.6 1.7 1.0 0.7 0.6 0.7 0.7 0.5 0.3
0.1 0.1 0.1 0.1 0.1 0.1 0.3 0.3 0.0 0.4 0.5 0.2 0.4 0.2 0.2 0.3 0.1 0.2 0.3 0.5 0.4 0.6 0.7 0.7 0.9 0.8 0.5 0.5 0.6 0.9 1.7 2.9 3.5 3.9 3.5 2.6 1.4 0.9 0.8 1.1 1.5 2.1 1.6
0.1 0.1 0.2 0.2 0.1 0.1 0.1 0.5 0.2 0.5 0.6 0.7 0.4 0.3 0.5 0.4 0.1 0.2 0.5 0.7 0.9 1.0 1.1 1.1 1.0 0.9 0.8 0.6 0.6 1.1 1.6 2.1 2.7 3.0 2.8 1.8 1.4 1.1 2.0 2.9 3.0 3.2 2.3
0.2 0.2 0.2 0.3 0.4 0.6 0.8 1.1 1.2 1.2 1.3 1.6 1.4 1.3 1.0 0.9 0.5 0.6 0.9 1.0 0.9 1.0 0.8 0.7 0.7 0.5 0.5 0.9 1.5 1.9 1.5 1.1 1.0 1.0 1.1 1.1 1.2 1.3 2.4 3.9 3.7 2.6 1.1
0.9 0.8 1.0 1.0 0.9 1.5 1.9 2.0 1.8 1.6 1.7 2.1 2.0 2.1 1.7 1.3 0.3 0.4 0.8 1.0 1.0 0.8 0.8 0.6 0.6 0.6 0.7 1.9 2.8 2.8 1.6 0.6 0.4 0.6 1.0 1.0 1.0 0.9 1.1 2.5 3.7 4.9 3.6
0.9 0.9 0.8 1.1 1.4 1.3 1.9 1.8 1.9 1.9 2.0 2.1 2.3 1.6 1.3 1.1 0.5 0.5 0.6 0.7 0.8 0.8 0.8 0.6 0.6 0.8 1.5 2.8 3.0 2.9 1.9 0.8 1.1 0.9 0.5 0.3 0.3 0.2 0.5 2.0 5.9 10.1 7.9
0.9 0.8 0.9 0.7 1.3 1.3 1.3 1.6 1.3 1.8 1.7 1.6 1.3 0.9 0.6 0.4 0.3 0.3 0.5 0.9 1.1 1.3 1.1 0.6 0.4 1.1 2.2 2.7 2.3 1.4 1.5 2.2 1.8 0.9 0.5 0.3 0.4 0.3 0.4 0.8 2.9 9.1 12.2
1.1 1.1 1.2 1.3 1.3 0.9 0.9 1.1 1.2 1.0 0.7 0.6 0.5 0.3 0.4 0.3 0.2 0.3 0.6 1.1 1.6 1.9 1.6 0.8 0.8 1.7 1.9 1.4 0.9 1.0 1.7 1.8 1.2 1.2 1.2 1.1 1.2 1.0 1.1 1.2 1.4 2.7 5.6
1.4 1.4 1.4 1.2 1.1 0.7 0.6 0.5 0.6 0.6 0.6 0.8 0.6 0.6 0.6 0.4 0.3 0.3 0.7 1.3 1.7 1.7 1.4 1.5 1.7 1.4 1.0 0.7 0.6 1.0 1.2 1.6 2.4 3.3 3.3 2.6 1.9 2.0 1.8 2.4 2.5 2.9 3.8
0.8 1.0 1.0 1.1 1.1 1.1 0.4 0.5 0.6 0.6 0.7 0.9 0.9 0.9 0.7 0.5 0.4 0.5 1.0 1.3 1.4 1.5 1.6 1.6 1.2 0.7 0.6 0.7 0.9 1.2 1.5 2.0 3.6 4.8 4.3 3.4 3.0 3.6 3.9 5.3 6.6 6.9 7.5
1.0 1.1 0.9 1.1 1.4 1.1 1.0 0.7 0.7 0.7 0.8 1.2 1.3 1.1 1.3 1.2 0.8 1.7 2.2 2.0 2.4 2.4 2.4 1.4 0.9 1.3 1.1 1.4 1.6 1.5 1.9 2.4 3.2 3.9 4.5 4.8 4.6 5.3 6.3 7.2 9.0 10.1 10.5
1.2 1.3 1.1 1.1 1.3 1.1 1.0 0.9 0.4 0.5 0.4 0.7 0.6 1.1 1.1 1.2 1.4 1.8 2.0 2.5 2.6 2.1 2.0 2.1 2.2 2.3 2.4 2.2 2.3 2.5 2.7 3.1 3.9 5.1 5.6 6.2 7.1 7.7 8.6 8.9 10.4 11.8 11.3
1.3 1.4 1.3 1.2 1.3 1.3 1.4 1.2 1.3 0.8 0.6 0.5 0.4 0.7 0.9 1.0 1.2 1.5 1.9 2.1 1.5 1.3 1.7 2.6 2.7 2.8 2.9 2.9 3.3 3.7 4.0 4.0 5.3 7.1 7.8 8.4 9.5 9.8 10.6 11.3 11.4 11.3 10.1
1.0 1.0 1.1 1.2 1.3 1.2 1.3 1.4 1.3 1.4 1.4 1.1 0.8 0.6 0.7 0.7 0.9 1.2 1.6 1.3 1.2 1.2 1.7 2.3 2.8 3.1 3.2 3.6 3.9 4.9 5.4 5.6 6.6 7.9 8.8 9.4 10.8 12.0 12.4 11.9 11.3 10.8 10.0
1.1 1.0 1.0 1.0 1.1 1.1 1.2 1.1 1.3 1.4 1.4 1.3 1.2 1.3 0.8 0.7 0.8 1.1 1.3 1.4 1.8 2.1 2.1 1.9 2.0 2.6 3.4 3.8 4.4 5.2 6.3 7.6 8.9 10.5 11.0 11.3 12.0 13.8 14.0 11.8 10.5 9.3 8.6
1.2 1.2 1.1 1.0 1.3 1.4 1.5 1.3 1.3 1.4 1.7 1.4 1.4 1.4 1.5 2.0 2.0 1.6 1.6 1.8 2.4 2.5 2.5 2.6 2.3 2.4 3.3 4.0 4.8 5.8 7.3 8.3 9.5 10.6 11.2 11.5 11.9 13.2 13.0 10.6 8.8 8.3 7.6
1.2 1.2 1.3 1.3 1.4 1.6 1.7 1.7 1.8 1.9 1.9 1.8 1.7 1.7 2.2 3.0 2.3 2.0 2.2 2.5 2.7 3.2 3.3 3.4 3.3 3.2 4.0 4.6 5.6 6.5 7.9 9.0 9.8 11.4 11.8 11.5 11.1 10.6 9.0 8.2 7.8 7.9 8.1
1.3 1.2 1.4 1.5 1.6 1.8 2.2 2.3 2.2 2.3 2.2 2.1 1.9 2.0 2.1 2.2 1.9 2.0 2.2 1.9 2.1 2.4 3.0 3.8 4.0 4.0 5.3 7.6 9.5 10.4 10.1 9.8 10.2 11.7 12.0 11.0 10.0 8.8 8.1 8.3 8.2 8.3 8.2
1.4 1.6 1.7 1.6 1.8 2.1 2.3 2.3 2.4 2.6 2.6 2.5 2.5 2.4 2.4 2.5 2.1 2.2 2.2 2.1 2.0 2.1 2.0 3.0 4.0 3.8 4.4 6.8 9.6 13.4 15.0 13.1 12.1 12.9 13.5 11.9 10.1 9.4 9.5 9.8 8.9 8.8 8.5
1.8 1.8 2.1 2.0 2.1 2.3 2.3 2.3 2.3 2.5 2.7 2.7 2.7 2.7 2.8 2.7 2.8 2.5 2.3 2.3 2.3 2.2 2.3 3.0 3.8 4.2 4.8 7.0 8.9 10.7 12.3 13.7 15.5 15.4 15.0 14.6 12.2 10.4 10.1 9.8 8.8 8.3 8.2
2.1 2.3 2.6 2.5 2.6 2.5 2.7 2.5 2.5 2.5 2.8 2.9 2.9 2.8 2.8 2.9 2.7 2.7 2.7 2.7 2.6 2.6 2.3 3.0 3.9 4.8 5.6 7.0 8.8 10.1 10.7 12.1 13.5 13.9 13.4 12.8 11.4 9.8 9.8 9.5 8.7 8.1 8.0
2.3 2.6 2.8 3.0 3.0 2.7 3.0 3.0 3.1 3.2 3.3 3.3 3.3 3.3 3.4 3.3 3.2 3.1 3.1 3.3 3.5 3.3 2.9 3.1 3.6 4.9 6.3 7.4 7.9 9.2 10.3 10.0 8.3 7.7 9.8 11.3 10.6 9.0 9.1 9.7 8.9 8.4 8.3